START_TIME,STEP,MOV.,AL01,t_acc.,AL02,t_acc.,E37,t_acc.,H21,t_acc.
1981-08-24 15:00:35.340 ,3,0,0.,24.0,0.,24.0,0.,24.0,0.,24.0
1981-08-24 15:00:59.340 ,4,1,0.,24.0,0.,24.0,0.,24.0,0.,24.0
1981-08-24 15:01:23.340 ,4,0,0.,24.0,0.,24.0,0.,24.0,0.,24.0
1981-08-24 15:01:47.340 ,5,1,0.,24.0,0.,24.0,0.,24.0,0.,24.0
1981-08-24 15:02:11.340 ,5,0,0.,24.0,0.,24.0,0.,24.0,0.,24.0
1981-08-24 15:02:35.340 ,6,1,0.,24.0,0.,24.0,0.,24.0,0.,24.0
1981-08-24 15:02:59.340 ,6,0,0.,24.0,0.,24.0,0.,24.0,0.,24.0
1981-08-24 15:03:23.340 ,7,1,4.,24.0,0.,24.0,0.,24.0,0.,24.0
1981-08-24 15:03:47.340 ,7,0,38.,24.0,0.,24.0,0.,24.0,0.,24.0
1981-08-24 15:04:11.340 ,7,1,29.,24.0,0.,24.0,0.,24.0,0.,24.0
1981-08-24 15:04:35.340 ,6,1,26.,24.0,0.,24.0,0.,24.0,0.,24.0
1981-08-24 15:04:59.340 ,5,1,0.,24.0,0.,24.0,0.,24.0,0.,24.0
1981-08-24 15:05:23.340 ,4,1,0.,24.0,0.,24.0,0.,24.0,0.,24.0
1981-08-24 15:05:47.340 ,3,1,0.,24.0,0.,24.0,0.,24.0,0.,24.0
1981-08-24 15:06:11.340 ,2,1,0.,24.0,0.,24.0,0.,24.0,0.,24.0
1981-08-24 15:06:35.340 ,1,1,0.,24.0,0.,24.0,0.,24.0,0.,24.0
1981-08-24 15:06:59.340 ,0,1,0.,24.0,0.,24.0,0.,24.0,0.,24.0
1981-08-24 15:07:23.340 ,0,1,0.,24.0,0.,24.0,0.,24.0,0.,24.0
1981-08-24 15:07:47.340 ,1,1,0.,24.0,1.,24.0,0.,24.0,0.,24.0
1981-08-24 15:08:11.340 ,2,1,0.,24.0,0.,24.0,0.,24.0,0.,24.0
1981-08-24 15:08:35.340 ,3,1,0.,24.0,0.,24.0,0.,24.0,0.,24.0
1981-08-24 15:08:59.340 ,4,1,0.,24.0,0.,24.0,0.,24.0,0.,24.0
1981-08-24 15:09:23.340 ,5,1,0.,24.0,0.,24.0,0.,24.0,0.,24.0
1981-08-24 15:09:47.340 ,6,1,0.,24.0,0.,24.0,0.,24.0,0.,24.0
1981-08-24 15:10:11.340 ,7,1,4.,24.0,0.,24.0,0.,24.0,0.,24.0
1981-08-24 15:10:35.340 ,7,1,20.,24.0,0.,24.0,0.,24.0,0.,24.0
1981-08-24 15:10:59.340 ,7,0,27.,24.0,0.,24.0,0.,24.0,0.,24.0
1981-08-24 15:11:23.340 ,6,1,21.,24.0,0.,24.0,0.,24.0,0.,24.0
1981-08-24 15:11:47.340 ,6,0,0.,24.0,0.,24.0,0.,24.0,0.,24.0
1981-08-24 15:12:11.340 ,5,1,0.,24.0,0.,24.0,0.,24.0,0.,24.0
1981-08-24 15:12:35.340 ,5,0,0.,24.0,0.,24.0,0.,24.0,0.,24.0
1981-08-24 15:12:59.340 ,4,1,0.,24.0,0.,24.0,0.,24.0,0.,24.0
1981-08-24 15:13:23.340 ,4,0,0.,24.0,0.,24.0,0.,24.0,0.,24.0
1981-08-24 15:13:47.340 ,3,1,0.,24.0,0.,24.0,0.,24.0,0.,24.0
1981-08-24 15:14:11.340 ,3,0,0.,24.0,0.,24.0,0.,24.0,0.,24.0
1981-08-24 15:14:35.340 ,2,1,0.,24.0,0.,24.0,0.,24.0,0.,24.0
1981-08-24 15:14:59.340 ,2,0,0.,24.0,0.,24.0,0.,24.0,0.,24.0
1981-08-24 15:15:23.340 ,1,1,0.,24.0,0.,24.0,0.,24.0,0.,24.0
1981-08-24 15:15:47.340 ,1,0,0.,24.0,0.,24.0,0.,24.0,0.,24.0
1981-08-24 15:16:11.340 ,0,1,0.,24.0,0.,24.0,0.,24.0,0.,24.0
1981-08-24 15:16:35.340 ,0,0,0.,24.0,0.,24.0,0.,24.0,0.,24.0
1981-08-24 15:16:59.340 ,0,1,0.,24.0,0.,24.0,0.,24.0,0.,24.0
1981-08-24 15:17:23.340 ,0,0,0.,24.0,0.,24.0,0.,24.0,0.,24.0
1981-08-24 15:17:47.340 ,1,1,0.,24.0,0.,24.0,0.,24.0,0.,24.0
1981-08-24 15:18:11.340 ,1,0,0.,24.0,0.,24.0,0.,24.0,0.,24.0
1981-08-24 15:18:35.340 ,2,1,0.,24.0,0.,24.0,0.,24.0,0.,24.0
1981-08-24 15:18:59.340 ,2,0,0.,24.0,0.,24.0,0.,24.0,0.,24.0
1981-08-24 15:19:23.340 ,3,1,0.,24.0,0.,24.0,0.,24.0,0.,24.0
1981-08-24 15:19:47.340 ,3,0,0.,24.0,0.,24.0,0.,24.0,0.,24.0
1981-08-24 15:20:11.340 ,4,1,0.,24.0,0.,24.0,0.,24.0,0.,24.0
1981-08-24 15:20:35.340 ,4,0,0.,24.0,0.,24.0,0.,24.0,0.,24.0
1981-08-24 15:20:59.340 ,5,1,0.,24.0,0.,24.0,0.,24.0,0.,24.0
1981-08-24 15:21:23.340 ,5,0,0.,24.0,0.,24.0,0.,24.0,0.,24.0
1981-08-24 15:21:47.340 ,6,1,0.,24.0,0.,24.0,0.,24.0,0.,24.0
1981-08-24 15:22:11.340 ,6,0,0.,24.0,0.,24.0,0.,24.0,0.,24.0
1981-08-24 15:22:35.340 ,7,1,11.,24.0,0.,24.0,0.,24.0,0.,24.0
1981-08-24 15:22:59.340 ,7,0,21.,24.0,0.,24.0,0.,24.0,0.,24.0
1981-08-24 15:23:23.340 ,7,1,34.,24.0,0.,24.0,0.,24.0,0.,24.0
1981-08-24 15:23:47.340 ,6,1,18.,24.0,0.,24.0,0.,24.0,0.,24.0
1981-08-24 15:24:11.340 ,5,1,0.,24.0,0.,24.0,0.,24.0,0.,24.0
1981-08-24 15:24:35.340 ,4,1,0.,24.0,0.,24.0,0.,24.0,0.,24.0
1981-08-24 15:24:59.340 ,3,1,0.,24.0,0.,24.0,0.,24.0,0.,24.0
1981-08-24 15:25:23.340 ,2,1,0.,24.0,0.,24.0,0.,24.0,0.,24.0
1981-08-24 15:25:47.340 ,1,1,0.,24.0,0.,24.0,0.,24.0,0.,24.0
1981-08-24 15:26:11.340 ,0,1,0.,24.0,0.,24.0,0.,24.0,0.,24.0
1981-08-24 15:26:35.340 ,0,1,0.,24.0,0.,24.0,0.,24.0,0.,24.0
1981-08-24 15:26:59.340 ,1,1,0.,24.0,0.,24.0,0.,24.0,0.,24.0
1981-08-24 15:27:23.340 ,2,1,0.,24.0,0.,24.0,0.,24.0,0.,24.0
1981-08-24 15:27:47.340 ,3,1,0.,24.0,0.,24.0,0.,24.0,0.,24.0
1981-08-24 15:28:11.340 ,4,1,0.,24.0,0.,24.0,0.,24.0,0.,24.0
1981-08-24 15:28:35.340 ,5,1,0.,24.0,0.,24.0,0.,24.0,0.,24.0
1981-08-24 15:28:59.340 ,6,1,0.,24.0,0.,24.0,0.,24.0,0.,24.0
1981-08-24 15:29:23.340 ,7,1,10.,24.0,0.,24.0,0.,24.0,0.,24.0
1981-08-24 15:29:47.340 ,7,1,32.,24.0,0.,24.0,0.,24.0,0.,24.0
1981-08-24 15:30:11.340 ,7,0,35.,24.0,0.,24.0,0.,24.0,0.,24.0
1981-08-24 15:30:35.340 ,6,1,17.,24.0,0.,24.0,0.,24.0,0.,24.0
1981-08-24 15:30:59.340 ,6,0,0.,24.0,0.,24.0,0.,24.0,0.,24.0
1981-08-24 15:31:23.340 ,5,1,0.,24.0,0.,24.0,0.,24.0,0.,24.0
1981-08-24 15:31:47.340 ,5,0,0.,24.0,0.,24.0,0.,24.0,0.,24.0
1981-08-24 15:32:11.340 ,4,1,0.,24.0,0.,24.0,0.,24.0,0.,24.0
1981-08-24 15:32:35.340 ,4,0,0.,24.0,0.,24.0,0.,24.0,0.,24.0
1981-08-24 15:32:59.340 ,3,1,0.,24.0,0.,24.0,0.,24.0,0.,24.0
1981-08-24 15:33:23.340 ,3,0,0.,24.0,0.,24.0,0.,24.0,0.,24.0
1981-08-24 15:33:47.340 ,2,1,0.,24.0,0.,24.0,0.,24.0,0.,24.0
1981-08-24 15:34:11.340 ,2,0,0.,24.0,0.,24.0,0.,24.0,0.,24.0
1981-08-24 15:34:35.340 ,1,1,0.,24.0,0.,24.0,0.,24.0,0.,24.0
1981-08-24 15:34:59.340 ,1,0,0.,24.0,0.,24.0,0.,24.0,0.,24.0
1981-08-24 15:35:23.340 ,0,1,0.,24.0,0.,24.0,0.,24.0,0.,24.0
1981-08-24 15:35:47.340 ,0,0,0.,24.0,0.,24.0,0.,24.0,0.,24.0
1981-08-24 15:36:11.340 ,0,1,0.,24.0,0.,24.0,0.,24.0,0.,24.0
1981-08-24 15:36:35.340 ,0,0,0.,24.0,0.,24.0,0.,24.0,0.,24.0
1981-08-24 15:36:59.340 ,1,1,0.,24.0,0.,24.0,0.,24.0,0.,24.0
1981-08-24 15:37:23.340 ,1,0,0.,24.0,0.,24.0,0.,24.0,0.,24.0
1981-08-24 15:37:47.340 ,2,1,0.,24.0,0.,24.0,0.,24.0,0.,24.0
1981-08-24 15:38:11.340 ,2,0,0.,24.0,0.,24.0,0.,24.0,0.,24.0
1981-08-24 15:38:35.340 ,3,1,0.,24.0,0.,24.0,0.,24.0,0.,24.0
1981-08-24 15:38:59.340 ,3,0,0.,24.0,0.,24.0,0.,24.0,0.,24.0
1981-08-24 15:39:23.340 ,4,1,0.,24.0,0.,24.0,0.,24.0,0.,24.0
1981-08-24 15:39:47.340 ,4,0,0.,24.0,0.,24.0,0.,24.0,0.,24.0
1981-08-24 15:40:11.340 ,5,1,0.,24.0,0.,24.0,0.,24.0,0.,24.0
1981-08-24 15:40:35.340 ,5,0,0.,24.0,0.,24.0,0.,24.0,0.,24.0
1981-08-24 15:40:59.340 ,6,1,0.,24.0,0.,24.0,0.,24.0,0.,24.0
1981-08-24 15:41:23.340 ,6,0,0.,24.0,0.,24.0,0.,24.0,0.,24.0
1981-08-24 15:41:47.340 ,7,1,9.,24.0,0.,24.0,0.,24.0,0.,24.0
1981-08-24 15:42:11.340 ,7,0,27.,24.0,0.,24.0,0.,24.0,0.,24.0
1981-08-24 15:42:35.340 ,7,1,33.,24.0,0.,24.0,0.,24.0,0.,24.0
1981-08-24 15:42:59.340 ,6,1,23.,24.0,0.,24.0,0.,24.0,0.,24.0
1981-08-24 15:43:23.340 ,5,1,0.,24.0,0.,24.0,0.,24.0,0.,24.0
1981-08-24 15:43:47.340 ,4,1,0.,24.0,0.,24.0,0.,24.0,0.,24.0
1981-08-24 15:44:11.340 ,3,1,0.,24.0,0.,24.0,0.,24.0,0.,24.0
1981-08-24 15:44:35.340 ,2,1,0.,24.0,0.,24.0,0.,24.0,0.,24.0
1981-08-24 15:44:59.340 ,1,1,0.,24.0,1.,24.0,0.,24.0,0.,24.0
1981-08-24 15:45:23.340 ,0,1,0.,24.0,0.,24.0,0.,24.0,0.,24.0
1981-08-24 15:45:47.340 ,0,1,0.,24.0,0.,24.0,0.,24.0,0.,24.0
1981-08-24 15:46:11.340 ,1,1,0.,24.0,0.,24.0,0.,24.0,0.,24.0
1981-08-24 15:46:35.340 ,2,1,0.,24.0,1.,24.0,0.,24.0,0.,24.0
1981-08-24 15:46:59.340 ,3,1,0.,24.0,0.,24.0,0.,24.0,0.,24.0
1981-08-24 15:47:23.340 ,4,1,0.,24.0,0.,24.0,0.,24.0,0.,24.0
1981-08-24 15:47:47.340 ,5,1,0.,24.0,1.,24.0,0.,24.0,0.,24.0
1981-08-24 15:48:11.340 ,6,1,0.,24.0,0.,24.0,0.,24.0,0.,24.0
1981-08-24 15:48:35.340 ,7,1,9.,24.0,0.,24.0,0.,24.0,0.,24.0
1981-08-24 15:48:59.340 ,7,1,27.,24.0,0.,24.0,0.,24.0,0.,24.0
1981-08-24 15:49:23.340 ,7,0,25.,24.0,0.,24.0,0.,24.0,0.,24.0
1981-08-24 15:49:47.340 ,6,1,28.,24.0,0.,24.0,0.,24.0,0.,24.0
1981-08-24 15:50:11.340 ,6,0,0.,24.0,0.,24.0,0.,24.0,0.,24.0
1981-08-24 15:50:35.340 ,5,1,0.,24.0,0.,24.0,0.,24.0,0.,24.0
1981-08-24 15:50:59.340 ,5,0,0.,24.0,0.,24.0,0.,24.0,0.,24.0
1981-08-24 15:51:23.340 ,4,1,0.,24.0,1.,24.0,0.,24.0,0.,24.0
1981-08-24 15:51:47.340 ,4,0,1.,24.0,1.,24.0,0.,24.0,0.,24.0
1981-08-24 15:52:11.340 ,3,1,0.,24.0,0.,24.0,0.,24.0,0.,24.0
1981-08-24 15:52:35.340 ,3,0,0.,24.0,0.,24.0,0.,24.0,0.,24.0
1981-08-24 15:52:59.340 ,2,1,0.,24.0,0.,24.0,0.,24.0,0.,24.0
1981-08-24 15:53:23.340 ,2,0,0.,24.0,0.,24.0,0.,24.0,0.,24.0
1981-08-24 15:53:47.340 ,1,1,0.,24.0,0.,24.0,0.,24.0,0.,24.0
1981-08-24 15:54:11.340 ,1,0,0.,24.0,0.,24.0,0.,24.0,0.,24.0
1981-08-24 15:54:35.340 ,0,1,0.,24.0,0.,24.0,0.,24.0,0.,24.0
1981-08-24 15:54:59.340 ,0,0,0.,24.0,1.,24.0,0.,24.0,0.,24.0
1981-08-24 15:55:23.340 ,0,1,0.,24.0,0.,24.0,0.,24.0,0.,24.0
1981-08-24 15:55:47.340 ,0,0,0.,24.0,0.,24.0,0.,24.0,0.,24.0
1981-08-24 15:56:11.340 ,1,1,0.,24.0,0.,24.0,0.,24.0,0.,24.0
1981-08-24 15:56:35.340 ,1,0,0.,24.0,0.,24.0,0.,24.0,0.,24.0
1981-08-24 15:56:59.340 ,2,1,0.,24.0,0.,24.0,0.,24.0,0.,24.0
1981-08-24 15:57:23.340 ,2,0,0.,24.0,0.,24.0,0.,24.0,0.,24.0
1981-08-24 15:57:47.340 ,3,1,0.,24.0,1.,24.0,0.,24.0,0.,24.0
1981-08-24 15:58:11.340 ,3,0,0.,24.0,0.,24.0,0.,24.0,0.,24.0
1981-08-24 15:58:35.340 ,4,1,0.,24.0,0.,24.0,0.,24.0,0.,24.0
1981-08-24 15:58:59.340 ,4,0,0.,24.0,0.,24.0,0.,24.0,0.,24.0
1981-08-24 15:59:23.340 ,5,1,0.,24.0,0.,24.0,0.,24.0,0.,24.0
1981-08-24 15:59:47.340 ,5,0,0.,24.0,0.,24.0,0.,24.0,0.,24.0
1981-08-24 16:00:11.340 ,6,1,0.,24.0,0.,24.0,0.,24.0,0.,24.0
1981-08-24 16:00:35.340 ,6,0,0.,24.0,0.,24.0,0.,24.0,0.,24.0
1981-08-24 16:00:59.340 ,7,1,10.,24.0,0.,24.0,0.,24.0,0.,24.0
1981-08-24 16:01:23.340 ,7,0,35.,24.0,0.,24.0,0.,24.0,0.,24.0
1981-08-24 16:01:47.340 ,7,1,28.,24.0,0.,24.0,0.,24.0,0.,24.0
1981-08-24 16:02:11.340 ,6,1,22.,24.0,0.,24.0,0.,24.0,0.,24.0
1981-08-24 16:02:35.340 ,5,1,0.,24.0,0.,24.0,0.,24.0,0.,24.0
1981-08-24 16:02:59.340 ,4,1,1.,24.0,0.,24.0,0.,24.0,0.,24.0
1981-08-24 16:03:23.340 ,3,1,0.,24.0,0.,24.0,0.,24.0,0.,24.0
1981-08-24 16:03:47.340 ,2,1,0.,24.0,0.,24.0,0.,24.0,0.,24.0
1981-08-24 16:04:11.340 ,1,1,0.,24.0,0.,24.0,0.,24.0,0.,24.0
1981-08-24 16:04:35.340 ,0,1,0.,24.0,0.,24.0,0.,24.0,0.,24.0
1981-08-24 16:04:59.340 ,0,1,0.,24.0,0.,24.0,0.,24.0,0.,24.0
1981-08-24 16:05:23.340 ,1,1,0.,24.0,0.,24.0,0.,24.0,0.,24.0
1981-08-24 16:05:47.340 ,2,1,0.,24.0,0.,24.0,0.,24.0,0.,24.0
1981-08-24 16:06:11.340 ,3,1,0.,24.0,0.,24.0,0.,24.0,0.,24.0
1981-08-24 16:06:35.340 ,4,1,0.,24.0,0.,24.0,0.,24.0,0.,24.0
1981-08-24 16:06:59.340 ,5,1,1.,24.0,0.,24.0,0.,24.0,0.,24.0
1981-08-24 16:07:23.340 ,6,1,0.,24.0,1.,24.0,0.,24.0,0.,24.0
1981-08-24 16:07:47.340 ,7,1,3.,24.0,0.,24.0,0.,24.0,0.,24.0
1981-08-24 16:08:11.340 ,7,1,29.,24.0,0.,24.0,0.,24.0,0.,24.0
1981-08-24 16:08:35.340 ,7,0,28.,24.0,0.,24.0,0.,24.0,0.,24.0
1981-08-24 16:08:59.340 ,6,1,19.,24.0,0.,24.0,0.,24.0,0.,24.0
1981-08-24 16:09:23.340 ,6,0,0.,24.0,0.,24.0,0.,24.0,0.,24.0
1981-08-24 16:09:47.340 ,5,1,0.,24.0,0.,24.0,0.,24.0,0.,24.0
1981-08-24 16:10:11.340 ,5,0,0.,24.0,0.,24.0,0.,24.0,0.,24.0
1981-08-24 16:10:35.340 ,4,1,0.,24.0,0.,24.0,0.,24.0,0.,24.0
1981-08-24 16:10:59.340 ,4,0,0.,24.0,0.,24.0,0.,24.0,0.,24.0
1981-08-24 16:11:23.340 ,3,1,0.,24.0,0.,24.0,0.,24.0,0.,24.0
1981-08-24 16:11:47.340 ,3,0,0.,24.0,0.,24.0,0.,24.0,0.,24.0
1981-08-24 16:12:11.340 ,2,1,0.,24.0,0.,24.0,0.,24.0,0.,24.0
1981-08-24 16:12:35.340 ,2,0,1.,24.0,0.,24.0,0.,24.0,0.,24.0
1981-08-24 16:12:59.340 ,1,1,0.,24.0,0.,24.0,0.,24.0,0.,24.0
1981-08-24 16:13:23.340 ,1,0,0.,24.0,0.,24.0,0.,24.0,0.,24.0
1981-08-24 16:13:47.340 ,0,1,0.,24.0,0.,24.0,0.,24.0,0.,24.0
1981-08-24 16:14:11.340 ,0,0,0.,24.0,0.,24.0,0.,24.0,0.,24.0
1981-08-24 16:14:35.340 ,0,1,1.,24.0,0.,24.0,0.,24.0,0.,24.0
1981-08-24 16:14:59.340 ,0,0,0.,24.0,0.,24.0,0.,24.0,0.,24.0
1981-08-24 16:15:23.340 ,1,1,0.,24.0,0.,24.0,0.,24.0,0.,24.0
1981-08-24 16:15:47.340 ,1,0,0.,24.0,0.,24.0,0.,24.0,0.,24.0
1981-08-24 16:16:11.340 ,2,1,0.,24.0,0.,24.0,0.,24.0,0.,24.0
1981-08-24 16:16:35.340 ,2,0,0.,24.0,0.,24.0,0.,24.0,0.,24.0
1981-08-24 16:16:59.340 ,3,1,0.,24.0,0.,24.0,0.,24.0,0.,24.0
1981-08-24 16:17:23.340 ,3,0,0.,24.0,0.,24.0,0.,24.0,0.,24.0
1981-08-24 16:17:47.340 ,4,1,0.,24.0,0.,24.0,0.,24.0,0.,24.0
1981-08-24 16:18:11.340 ,4,0,0.,24.0,0.,24.0,0.,24.0,0.,24.0
1981-08-24 16:18:35.340 ,5,1,0.,24.0,0.,24.0,0.,24.0,0.,24.0
1981-08-24 16:18:59.340 ,5,0,0.,24.0,0.,24.0,0.,24.0,0.,24.0
1981-08-24 16:19:23.340 ,6,1,0.,24.0,0.,24.0,0.,24.0,0.,24.0
1981-08-24 16:19:47.340 ,6,0,0.,24.0,0.,24.0,0.,24.0,0.,24.0
1981-08-24 16:20:11.340 ,7,1,6.,24.0,0.,24.0,0.,24.0,0.,24.0
1981-08-24 16:20:35.340 ,7,0,35.,24.0,0.,24.0,0.,24.0,0.,24.0
1981-08-24 16:20:59.340 ,7,1,22.,24.0,0.,24.0,0.,24.0,0.,24.0
1981-08-24 16:21:23.340 ,6,1,17.,24.0,0.,24.0,0.,24.0,0.,24.0
1981-08-24 16:21:47.340 ,5,1,0.,24.0,0.,24.0,0.,24.0,0.,24.0
1981-08-24 16:22:11.340 ,4,1,0.,24.0,0.,24.0,0.,24.0,0.,24.0
1981-08-24 16:22:35.340 ,3,1,0.,24.0,0.,24.0,0.,24.0,0.,24.0
1981-08-24 16:22:59.340 ,2,1,0.,24.0,0.,24.0,0.,24.0,0.,24.0
1981-08-24 16:23:23.340 ,1,1,0.,24.0,0.,24.0,0.,24.0,0.,24.0
1981-08-24 16:23:47.340 ,0,1,0.,24.0,0.,24.0,0.,24.0,0.,24.0
1981-08-24 16:24:11.340 ,0,1,0.,24.0,0.,24.0,0.,24.0,0.,24.0
1981-08-24 16:24:35.340 ,1,1,0.,24.0,0.,24.0,0.,24.0,0.,24.0
1981-08-24 16:24:59.340 ,2,1,0.,24.0,0.,24.0,0.,24.0,0.,24.0
1981-08-24 16:25:23.340 ,3,1,0.,24.0,0.,24.0,0.,24.0,0.,24.0
1981-08-24 16:25:47.340 ,4,1,0.,24.0,0.,24.0,0.,24.0,0.,24.0
1981-08-24 16:26:11.340 ,5,1,0.,24.0,0.,24.0,0.,24.0,0.,24.0
1981-08-24 16:26:35.340 ,6,1,1.,24.0,0.,24.0,0.,24.0,0.,24.0
1981-08-24 16:26:59.340 ,7,1,6.,24.0,0.,24.0,0.,24.0,0.,24.0
1981-08-24 16:27:23.340 ,7,1,33.,24.0,0.,24.0,0.,24.0,0.,24.0
1981-08-24 16:27:47.340 ,7,0,39.,24.0,0.,24.0,0.,24.0,0.,24.0
1981-08-24 16:28:11.340 ,6,1,16.,24.0,0.,24.0,0.,24.0,0.,24.0
1981-08-24 16:28:35.340 ,6,0,0.,24.0,0.,24.0,0.,24.0,0.,24.0
1981-08-24 16:28:59.340 ,5,1,0.,24.0,0.,24.0,0.,24.0,0.,24.0
1981-08-24 16:29:23.340 ,5,0,0.,24.0,0.,24.0,0.,24.0,0.,24.0
1981-08-24 16:29:47.340 ,4,1,0.,24.0,0.,24.0,0.,24.0,0.,24.0
1981-08-24 16:30:11.340 ,4,0,0.,24.0,0.,24.0,0.,24.0,0.,24.0
1981-08-24 16:30:35.340 ,3,1,0.,24.0,0.,24.0,0.,24.0,0.,24.0
1981-08-24 16:30:59.340 ,3,0,0.,24.0,0.,24.0,0.,24.0,0.,24.0
1981-08-24 16:31:23.340 ,2,1,0.,24.0,0.,24.0,0.,24.0,0.,24.0
1981-08-24 16:31:47.340 ,2,0,0.,24.0,0.,24.0,0.,24.0,0.,24.0
1981-08-24 16:32:11.340 ,1,1,0.,24.0,0.,24.0,0.,24.0,0.,24.0
1981-08-24 16:32:35.340 ,1,0,0.,24.0,0.,24.0,0.,24.0,0.,24.0
1981-08-24 16:32:59.340 ,0,1,0.,24.0,0.,24.0,0.,24.0,0.,24.0
1981-08-24 16:33:23.340 ,0,0,0.,24.0,0.,24.0,0.,24.0,0.,24.0
1981-08-24 16:33:47.340 ,0,1,0.,24.0,0.,24.0,0.,24.0,0.,24.0
1981-08-24 16:34:11.340 ,0,0,0.,24.0,0.,24.0,0.,24.0,0.,24.0
1981-08-24 16:34:35.340 ,0,0,0.,24.0,0.,24.0,0.,24.0,0.,24.0
1981-08-24 16:34:59.340 ,0,0,0.,24.0,0.,24.0,0.,24.0,0.,24.0
1981-08-24 16:35:23.340 ,2,1,0.,24.0,0.,24.0,0.,24.0,0.,24.0
1981-08-24 16:35:47.340 ,2,0,0.,24.0,0.,24.0,0.,24.0,0.,24.0
1981-08-24 16:36:11.340 ,3,1,0.,24.0,0.,24.0,0.,24.0,0.,24.0
1981-08-24 16:36:35.340 ,3,0,0.,24.0,0.,24.0,0.,24.0,0.,24.0
1981-08-24 16:36:59.340 ,4,1,0.,24.0,0.,24.0,0.,24.0,0.,24.0
1981-08-24 16:37:23.340 ,4,0,0.,24.0,0.,24.0,0.,24.0,0.,24.0
1981-08-24 16:37:47.340 ,5,1,0.,24.0,0.,24.0,0.,24.0,0.,24.0
1981-08-24 16:38:11.340 ,5,0,0.,24.0,0.,24.0,0.,24.0,0.,24.0
1981-08-24 16:38:35.340 ,6,1,0.,24.0,0.,24.0,0.,24.0,0.,24.0
1981-08-24 16:38:59.340 ,6,0,0.,24.0,0.,24.0,0.,24.0,0.,24.0
1981-08-24 16:39:23.340 ,7,1,6.,24.0,0.,24.0,0.,24.0,0.,24.0
1981-08-24 16:39:47.340 ,7,0,23.,24.0,0.,24.0,0.,24.0,0.,24.0
1981-08-24 16:40:11.340 ,7,1,28.,24.0,0.,24.0,0.,24.0,0.,24.0
1981-08-24 16:40:35.340 ,6,1,24.,24.0,0.,24.0,0.,24.0,0.,24.0
1981-08-24 16:40:59.340 ,5,1,0.,24.0,0.,24.0,0.,24.0,0.,24.0
1981-08-24 16:41:23.340 ,4,1,0.,24.0,0.,24.0,0.,24.0,0.,24.0
1981-08-24 16:41:47.340 ,3,1,0.,24.0,0.,24.0,0.,24.0,0.,24.0
1981-08-24 16:42:11.340 ,2,1,0.,24.0,0.,24.0,0.,24.0,0.,24.0
1981-08-24 16:42:35.340 ,1,1,0.,24.0,0.,24.0,0.,24.0,0.,24.0
1981-08-24 16:42:59.340 ,0,1,0.,24.0,0.,24.0,0.,24.0,0.,24.0
1981-08-24 16:43:23.340 ,0,1,0.,24.0,0.,24.0,0.,24.0,0.,24.0
1981-08-24 16:43:47.340 ,1,1,0.,24.0,0.,24.0,0.,24.0,0.,24.0
1981-08-24 16:44:11.340 ,2,1,0.,24.0,0.,24.0,0.,24.0,0.,24.0
1981-08-24 16:44:35.340 ,3,1,0.,24.0,0.,24.0,0.,24.0,0.,24.0
1981-08-24 16:44:59.340 ,4,1,0.,24.0,0.,24.0,0.,24.0,0.,24.0
1981-08-24 16:45:23.340 ,5,1,0.,24.0,0.,24.0,0.,24.0,0.,24.0
1981-08-24 16:45:47.340 ,6,1,0.,24.0,0.,24.0,0.,24.0,0.,24.0
1981-08-24 16:46:11.340 ,7,1,5.,24.0,0.,24.0,0.,24.0,0.,24.0
1981-08-24 16:46:35.340 ,7,1,29.,24.0,0.,24.0,0.,24.0,0.,24.0
1981-08-24 16:46:59.340 ,7,0,34.,24.0,0.,24.0,0.,24.0,0.,24.0
1981-08-24 16:47:23.340 ,6,1,17.,24.0,0.,24.0,0.,24.0,0.,24.0
1981-08-24 16:47:47.340 ,6,0,0.,24.0,0.,24.0,0.,24.0,0.,24.0
1981-08-24 16:48:11.340 ,5,1,0.,24.0,0.,24.0,0.,24.0,0.,24.0
1981-08-24 16:48:35.340 ,5,0,0.,24.0,0.,24.0,0.,24.0,0.,24.0
1981-08-24 16:48:59.340 ,4,1,0.,24.0,0.,24.0,0.,24.0,0.,24.0
1981-08-24 16:49:23.340 ,4,0,1.,24.0,0.,24.0,0.,24.0,0.,24.0
1981-08-24 16:49:47.340 ,3,1,0.,24.0,0.,24.0,0.,24.0,0.,24.0
1981-08-24 16:50:11.340 ,3,0,0.,24.0,0.,24.0,0.,24.0,0.,24.0
1981-08-24 16:50:35.340 ,2,1,0.,24.0,0.,24.0,0.,24.0,0.,24.0
1981-08-24 16:50:59.340 ,2,0,0.,24.0,0.,24.0,0.,24.0,0.,24.0
1981-08-24 16:51:23.340 ,1,1,0.,24.0,0.,24.0,0.,24.0,0.,24.0
1981-08-24 16:51:47.340 ,1,0,0.,24.0,0.,24.0,0.,24.0,0.,24.0
1981-08-24 16:52:11.340 ,0,1,0.,24.0,0.,24.0,0.,24.0,0.,24.0
1981-08-24 16:52:35.340 ,0,0,0.,24.0,0.,24.0,0.,24.0,0.,24.0
1981-08-24 16:52:59.340 ,0,1,0.,24.0,0.,24.0,0.,24.0,0.,24.0
1981-08-24 16:53:23.340 ,0,0,0.,24.0,0.,24.0,0.,24.0,0.,24.0
1981-08-24 16:53:47.340 ,1,1,0.,24.0,0.,24.0,0.,24.0,0.,24.0
1981-08-24 16:54:11.340 ,1,0,0.,24.0,0.,24.0,0.,24.0,0.,24.0
1981-08-24 16:54:35.340 ,2,1,0.,24.0,0.,24.0,0.,24.0,0.,24.0
1981-08-24 16:54:59.340 ,2,0,0.,24.0,0.,24.0,0.,24.0,0.,24.0
1981-08-24 16:55:23.340 ,3,1,0.,24.0,0.,24.0,0.,24.0,0.,24.0
1981-08-24 16:55:47.340 ,3,0,0.,24.0,0.,24.0,0.,24.0,0.,24.0
1981-08-24 16:56:11.340 ,4,1,0.,24.0,1.,24.0,0.,24.0,0.,24.0
1981-08-24 16:56:35.340 ,4,0,0.,24.0,0.,24.0,0.,24.0,0.,24.0
1981-08-24 16:56:59.340 ,5,1,0.,24.0,0.,24.0,0.,24.0,0.,24.0
1981-08-24 16:57:23.340 ,5,0,0.,24.0,0.,24.0,0.,24.0,0.,24.0
1981-08-24 16:57:47.340 ,6,1,0.,24.0,0.,24.0,0.,24.0,0.,24.0
1981-08-24 16:58:11.340 ,6,0,0.,24.0,0.,24.0,0.,24.0,0.,24.0
1981-08-24 16:58:35.340 ,7,1,11.,24.0,0.,24.0,0.,24.0,0.,24.0
1981-08-24 16:58:59.340 ,7,0,32.,24.0,0.,24.0,0.,24.0,0.,24.0
1981-08-24 16:59:23.340 ,7,1,30.,24.0,0.,24.0,0.,24.0,0.,24.0
1981-08-24 16:59:47.340 ,6,1,25.,24.0,0.,24.0,0.,24.0,0.,24.0
1981-08-24 17:00:11.340 ,5,1,0.,24.0,0.,24.0,0.,24.0,0.,24.0
1981-08-24 17:00:35.340 ,4,1,0.,24.0,0.,24.0,0.,24.0,0.,24.0
1981-08-24 17:00:59.340 ,3,1,0.,24.0,0.,24.0,0.,24.0,0.,24.0
1981-08-24 17:01:23.340 ,2,1,0.,24.0,0.,24.0,0.,24.0,0.,24.0
1981-08-24 17:01:47.340 ,1,1,0.,24.0,0.,24.0,0.,24.0,0.,24.0
1981-08-24 17:02:11.340 ,0,1,0.,24.0,0.,24.0,0.,24.0,0.,24.0
1981-08-24 17:02:35.340 ,0,1,1.,24.0,0.,24.0,0.,24.0,0.,24.0
1981-08-24 17:02:59.340 ,1,1,0.,24.0,0.,24.0,0.,24.0,0.,24.0
1981-08-24 17:03:23.340 ,2,1,0.,24.0,0.,24.0,0.,24.0,0.,24.0
1981-08-24 17:03:47.340 ,3,1,0.,24.0,0.,24.0,0.,24.0,0.,24.0
1981-08-24 17:04:11.340 ,4,1,0.,24.0,0.,24.0,0.,24.0,0.,24.0
1981-08-24 17:04:35.340 ,5,1,0.,24.0,0.,24.0,0.,24.0,0.,24.0
1981-08-24 17:04:59.340 ,6,1,0.,24.0,0.,24.0,0.,24.0,0.,24.0
1981-08-24 17:05:23.340 ,7,1,13.,24.0,0.,24.0,0.,24.0,0.,24.0
1981-08-24 17:05:47.340 ,7,1,31.,24.0,0.,24.0,0.,24.0,0.,24.0
1981-08-24 17:06:11.340 ,7,0,31.,24.0,0.,24.0,0.,24.0,0.,24.0
1981-08-24 17:06:35.340 ,6,1,20.,24.0,0.,24.0,0.,24.0,0.,24.0
1981-08-24 17:06:59.340 ,6,0,0.,24.0,0.,24.0,0.,24.0,0.,24.0
1981-08-24 17:07:23.340 ,5,1,0.,24.0,0.,24.0,0.,24.0,0.,24.0
1981-08-24 17:07:47.340 ,5,0,0.,24.0,0.,24.0,0.,24.0,0.,24.0
1981-08-24 17:08:11.340 ,4,1,0.,24.0,0.,24.0,0.,24.0,0.,24.0
1981-08-24 17:08:35.340 ,4,0,0.,24.0,0.,24.0,0.,24.0,0.,24.0
1981-08-24 17:08:59.340 ,3,1,0.,24.0,0.,24.0,0.,24.0,0.,24.0
1981-08-24 17:09:23.340 ,3,0,0.,24.0,0.,24.0,0.,24.0,0.,24.0
1981-08-24 17:09:47.340 ,2,1,0.,24.0,0.,24.0,0.,24.0,0.,24.0
1981-08-24 17:10:11.340 ,2,0,0.,24.0,0.,24.0,0.,24.0,0.,24.0
1981-08-24 17:10:35.330 ,1,1,0.,24.0,0.,24.0,0.,24.0,0.,24.0
1981-08-24 17:10:59.330 ,1,0,0.,24.0,0.,24.0,0.,24.0,0.,24.0
1981-08-24 17:11:23.330 ,0,1,0.,24.0,0.,24.0,0.,24.0,0.,24.0
1981-08-24 17:11:47.330 ,0,0,0.,24.0,0.,24.0,0.,24.0,0.,24.0
1981-08-24 17:12:11.330 ,0,1,0.,24.0,0.,24.0,0.,24.0,0.,24.0
1981-08-24 17:12:35.330 ,0,0,0.,24.0,0.,24.0,0.,24.0,0.,24.0
1981-08-24 17:12:59.330 ,1,1,0.,24.0,0.,24.0,0.,24.0,0.,24.0
1981-08-24 17:13:23.330 ,1,0,0.,24.0,0.,24.0,0.,24.0,0.,24.0
1981-08-24 17:13:47.330 ,2,1,0.,24.0,0.,24.0,0.,24.0,0.,24.0
1981-08-24 17:14:11.330 ,2,0,0.,24.0,0.,24.0,0.,24.0,0.,24.0
1981-08-24 17:14:35.330 ,3,1,0.,24.0,0.,24.0,0.,24.0,0.,24.0
1981-08-24 17:14:59.330 ,3,0,0.,24.0,0.,24.0,0.,24.0,0.,24.0
1981-08-24 17:15:23.330 ,4,1,0.,24.0,0.,24.0,0.,24.0,0.,24.0
1981-08-24 17:15:47.330 ,4,0,0.,24.0,0.,24.0,0.,24.0,0.,24.0
1981-08-24 17:16:11.330 ,5,1,0.,24.0,0.,24.0,0.,24.0,0.,24.0
1981-08-24 17:16:35.330 ,5,0,0.,24.0,0.,24.0,0.,24.0,0.,24.0
1981-08-24 17:16:59.330 ,6,1,0.,24.0,0.,24.0,0.,24.0,0.,24.0
1981-08-24 17:17:23.340 ,6,0,0.,24.0,0.,24.0,0.,24.0,0.,24.0
1981-08-24 17:17:47.340 ,7,1,6.,24.0,0.,24.0,0.,24.0,0.,24.0
1981-08-24 17:18:11.340 ,7,0,24.,24.0,0.,24.0,0.,24.0,0.,24.0
1981-08-24 17:18:35.340 ,7,1,23.,24.0,0.,24.0,0.,24.0,0.,24.0
1981-08-24 17:18:59.340 ,6,1,25.,24.0,0.,24.0,0.,24.0,0.,24.0
1981-08-24 17:19:23.340 ,5,1,0.,24.0,0.,24.0,0.,24.0,0.,24.0
1981-08-24 17:19:47.340 ,4,1,1.,24.0,1.,24.0,0.,24.0,0.,24.0
1981-08-24 17:20:11.340 ,3,1,0.,24.0,0.,24.0,0.,24.0,0.,24.0
1981-08-24 17:20:35.340 ,2,1,0.,24.0,0.,24.0,0.,24.0,0.,24.0
1981-08-24 17:20:59.340 ,1,1,0.,24.0,0.,24.0,0.,24.0,0.,24.0
1981-08-24 17:21:23.340 ,0,1,0.,24.0,0.,24.0,0.,24.0,0.,24.0
1981-08-24 17:34:35.330 ,0,0,0.,24.0,0.,24.0,0.,24.0,0.,24.0
1981-08-24 17:34:59.330 ,0,0,0.,24.0,0.,24.0,0.,24.0,0.,24.0
1981-08-24 17:35:23.330 ,5,1,0.,24.0,0.,24.0,0.,24.0,0.,24.0
1981-08-24 17:35:47.330 ,5,0,0.,24.0,0.,24.0,0.,24.0,0.,24.0
1981-08-24 17:36:11.330 ,6,1,0.,24.0,0.,24.0,0.,24.0,0.,24.0
1981-08-24 17:36:35.330 ,6,0,0.,24.0,0.,24.0,0.,24.0,0.,24.0
1981-08-24 17:36:59.330 ,7,1,6.,24.0,0.,24.0,0.,24.0,0.,24.0
1981-08-24 17:37:23.330 ,7,0,27.,24.0,0.,24.0,0.,24.0,0.,24.0
1981-08-24 17:37:47.330 ,7,1,39.,24.0,0.,24.0,0.,24.0,0.,24.0
1981-08-24 17:38:11.330 ,6,1,29.,24.0,0.,24.0,0.,24.0,0.,24.0
1981-08-24 17:38:35.330 ,5,1,0.,24.0,0.,24.0,0.,24.0,0.,24.0
1981-08-24 17:38:59.330 ,4,1,0.,24.0,0.,24.0,0.,24.0,0.,24.0
1981-08-24 17:39:23.330 ,3,1,0.,24.0,0.,24.0,0.,24.0,0.,24.0
1981-08-24 17:39:47.330 ,2,1,0.,24.0,0.,24.0,0.,24.0,0.,24.0
1981-08-24 17:40:11.330 ,1,1,0.,24.0,0.,24.0,0.,24.0,0.,24.0
1981-08-24 17:40:35.330 ,0,1,0.,24.0,0.,24.0,0.,24.0,0.,24.0
1981-08-24 17:40:59.330 ,0,1,0.,24.0,0.,24.0,0.,24.0,0.,24.0
1981-08-24 17:41:23.330 ,1,1,0.,24.0,0.,24.0,0.,24.0,0.,24.0
1981-08-24 17:41:47.330 ,2,1,0.,24.0,0.,24.0,0.,24.0,0.,24.0
1981-08-24 17:42:11.330 ,3,1,1.,24.0,0.,24.0,0.,24.0,0.,24.0
1981-08-24 17:42:35.330 ,4,1,0.,24.0,0.,24.0,0.,24.0,0.,24.0
1981-08-24 17:42:59.330 ,5,1,0.,24.0,0.,24.0,0.,24.0,0.,24.0
1981-08-24 17:43:23.330 ,6,1,0.,24.0,0.,24.0,0.,24.0,0.,24.0
1981-08-24 17:43:47.330 ,7,1,12.,24.0,0.,24.0,0.,24.0,0.,24.0
1981-08-24 17:44:11.330 ,7,1,28.,24.0,0.,24.0,0.,24.0,0.,24.0
1981-08-24 17:44:35.330 ,7,0,29.,24.0,0.,24.0,0.,24.0,0.,24.0
1981-08-24 17:44:59.330 ,6,1,33.,24.0,0.,24.0,0.,24.0,0.,24.0
1981-08-24 17:45:23.330 ,6,0,0.,24.0,0.,24.0,0.,24.0,0.,24.0
1981-08-24 17:45:47.330 ,5,1,0.,24.0,0.,24.0,0.,24.0,0.,24.0
1981-08-24 17:46:11.330 ,5,0,0.,24.0,0.,24.0,0.,24.0,0.,24.0
1981-08-24 17:46:35.330 ,4,1,0.,24.0,0.,24.0,0.,24.0,0.,24.0
1981-08-24 17:46:59.330 ,4,0,0.,24.0,0.,24.0,0.,24.0,0.,24.0